Location: Newark
(25.4800°N, 85.7200°E)
Time: 13:15:47
(UTC+00:00)

Vanguard 1 Rocket - Pass Details

Date: 28 August 2019
Orbit: 651 x 4225 km, 34.3° (Epoch: 20 September)

Event Time Altitude Azimuth Distance (km) Brightness Sun altitude
Rises 21:16:21 0° 294° (WNW) 2,967 - -34.3°
Reaches altitude 10° 21:18:44 10° 305° (NW) 2,054 - -33.8°
Maximum altitude 21:22:44 32° 11° (N) 1,224 - -33.1°
Exits shadow 21:23:05 32° 19° (NNE) 1,249 8.4 -33.0°
Drops below altitude 10° 21:27:53 10° 75° (ENE) 2,655 10.6 -32.1°
Sets 21:31:25 0° 84° (E) 4,019 11.6 -31.4°
